Waseca, MN

2:56 AM CST on November 21, 2017 (GMT -0600)
Waseca Municipal

Weather History for KACQ - October, 2012

Change the Weather History Date:

Sunday, October 28, 2012

  Actual Average Record
Temperature  
Mean Temperature 37 °F -  
Max Temperature 48 °F 54 °F 75 °F (1966)
Min Temperature 26 °F 32 °F 11 °F (1925)
Degree Days  
Heating Degree Days 28    
Moisture  
Dew Point 23 °F    
Average Humidity 60    
Maximum Humidity 75    
Minimum Humidity 34    
Precipitation  
Precipitation 0.00 in - - ()
Sea Level Pressure  
Sea Level Pressure 30.32 in    
Wind  
Wind Speed 6 mph (SE)    
Max Wind Speed 15 mph    
Max Gust Speed 20 mph    
Visibility 10 miles    
Events      
Averages and records for this station are not official NWS values.
T = Trace of Precipitation, MM = Missing Value Source: NWS Daily Summary

Daily Weather History Graph

Daily Weather History Graph

Search for Another Location

Airport or City:

Trip Planner

Search our weather history database for the weather conditions in past years. The results will help you decide how hot, cold, wet, or windy it might be!

Date:

Astronomy

Oct. 28, 2012 Rise Set
Actual Time 7:46 AM CDT 6:09 PM CDT
Civil Twilight 7:16 AM CDT 6:38 PM CDT
Nautical Twilight 6:42 AM CDT 7:12 PM CDT
Astronomical Twilight 6:08 AM CDT 7:46 PM CDT
Moon 5:27 PM CDT (10/28) 6:39 AM CDT (10/28)
Length of Visible Light 11h 22m
Length of Day
10h 22m
Waxing Gibbous, 99% of the Moon is Illuminated
Oct 28
Waxing Gibbous
Oct 29
Full
Nov 6
Last Quarter
Nov 13
New
Nov 20
First Quarter

Hourly Weather History & Observations

Time (CDT) Temp. Windchill Dew Point Humidity Pressure Visibility Wind Dir Wind Speed Gust Speed Precip Events Conditions
12:13 AM 32.0 °F 28.7 °F 23.0 °F 69% 30.34 in 10.0 mi SE 3.5 mph - N/A   Scattered Clouds
12:33 AM 32.0 °F - 24.8 °F 75% 30.34 in 10.0 mi Calm Calm - N/A   Scattered Clouds
12:53 AM 30.2 °F 25.4 °F 23.0 °F 75% 30.34 in 10.0 mi SE 4.6 mph - N/A   Clear
1:13 AM 30.2 °F 23.4 °F 23.0 °F 75% 30.34 in 10.0 mi SE 6.9 mph - N/A   Clear
1:32 AM 30.2 °F 24.3 °F 21.2 °F 69% 30.34 in 10.0 mi SE 5.8 mph - N/A   Clear
1:53 AM 30.2 °F 24.3 °F 23.0 °F 75% 30.34 in 10.0 mi ESE 5.8 mph - N/A   Clear
2:13 AM 28.4 °F - 21.2 °F 74% 30.34 in 10.0 mi Calm Calm - N/A   Clear
2:32 AM 30.2 °F 26.7 °F 23.0 °F 75% 30.34 in 10.0 mi East 3.5 mph - N/A   Clear
2:53 AM 28.4 °F 24.6 °F 21.2 °F 74% 30.34 in 10.0 mi East 3.5 mph - N/A   Clear
3:13 AM 28.4 °F 23.3 °F 21.2 °F 74% 30.34 in 10.0 mi ESE 4.6 mph - N/A   Clear
3:32 AM 28.4 °F 23.3 °F 21.2 °F 74% 30.34 in 10.0 mi ESE 4.6 mph - N/A   Clear
3:53 AM 30.2 °F 25.4 °F 23.0 °F 75% 30.33 in 10.0 mi ESE 4.6 mph - N/A   Scattered Clouds
4:12 AM 30.2 °F 24.3 °F 23.0 °F 75% 30.33 in 10.0 mi ESE 5.8 mph - N/A   Mostly Cloudy
4:32 AM 28.4 °F 21.2 °F 21.2 °F 74% 30.32 in 10.0 mi ESE 6.9 mph - N/A   Scattered Clouds
4:53 AM 28.4 °F 21.2 °F 21.2 °F 74% 30.32 in 10.0 mi ESE 6.9 mph - N/A   Clear
5:13 AM 28.4 °F 22.2 °F 21.2 °F 74% 30.33 in 10.0 mi ESE 5.8 mph - N/A   Clear
5:33 AM 28.4 °F 21.2 °F 21.2 °F 74% 30.32 in 10.0 mi ESE 6.9 mph - N/A   Clear
5:53 AM 28.4 °F 21.2 °F 21.2 °F 74% 30.33 in 10.0 mi ESE 6.9 mph - N/A   Clear
6:12 AM 28.4 °F 21.2 °F 19.4 °F 69% 30.33 in 10.0 mi ESE 6.9 mph - N/A   Clear
6:33 AM 28.4 °F 22.2 °F 21.2 °F 74% 30.34 in 10.0 mi SE 5.8 mph - N/A   Clear
6:53 AM 28.4 °F 22.2 °F 19.4 °F 69% 30.34 in 10.0 mi ESE 5.8 mph - N/A   Scattered Clouds
7:12 AM 26.6 °F 19.1 °F 19.4 °F 74% 30.34 in 10.0 mi ESE 6.9 mph - N/A   Scattered Clouds
7:33 AM 28.4 °F 21.2 °F 21.2 °F 74% 30.34 in 10.0 mi ESE 6.9 mph - N/A   Clear
7:53 AM 28.4 °F 21.2 °F 21.2 °F 74% 30.35 in 10.0 mi SE 6.9 mph - N/A   Mostly Cloudy
8:13 AM 30.2 °F 23.4 °F 23.0 °F 75% 30.35 in 10.0 mi SE 6.9 mph - N/A   Overcast
8:33 AM 32.0 °F 25.6 °F 24.8 °F 75% 30.35 in 10.0 mi SE 6.9 mph - N/A   Overcast
8:52 AM 33.8 °F 27.7 °F 26.6 °F 75% 30.35 in 10.0 mi SE 6.9 mph - N/A   Overcast
9:13 AM 33.8 °F 27.0 °F 26.6 °F 75% 30.36 in 10.0 mi SE 8.1 mph - N/A   Scattered Clouds
9:53 AM 39.2 °F 33.6 °F 26.6 °F 61% 30.35 in 10.0 mi SE 8.1 mph - N/A   Overcast
10:13 AM 39.2 °F 32.5 °F 23.0 °F 52% 30.35 in 10.0 mi SSE 10.4 mph - N/A   Overcast
10:33 AM 41.0 °F 33.9 °F 24.8 °F 53% 30.35 in 10.0 mi SSE 12.7 mph - N/A   Overcast
10:53 AM 41.0 °F 35.2 °F 23.0 °F 49% 30.35 in 10.0 mi SSE 9.2 mph - N/A   Overcast
11:13 AM 41.0 °F 35.2 °F 23.0 °F 49% 30.35 in 10.0 mi SSE 9.2 mph - N/A   Overcast
11:33 AM 41.0 °F 33.5 °F 21.2 °F 45% 30.35 in 10.0 mi South 13.8 mph - N/A   Mostly Cloudy
11:53 AM 44.6 °F 37.8 °F 23.0 °F 43% 30.35 in 10.0 mi South 15.0 mph - N/A   Mostly Cloudy
12:13 PM 44.6 °F 38.1 °F 23.0 °F 43% 30.34 in 10.0 mi South 13.8 mph - N/A   Mostly Cloudy
12:33 PM 44.6 °F 38.1 °F 23.0 °F 43% 30.33 in 10.0 mi South 13.8 mph - N/A   Scattered Clouds
12:53 PM 44.6 °F 38.8 °F 21.2 °F 39% 30.33 in 10.0 mi South 11.5 mph 19.6 mph N/A   Scattered Clouds
1:13 PM 46.4 °F 41.1 °F 23.0 °F 40% 30.32 in 10.0 mi SSE 11.5 mph 16.1 mph N/A   Scattered Clouds
1:33 PM 46.4 °F 41.1 °F 23.0 °F 40% 30.32 in 10.0 mi South 11.5 mph 17.3 mph N/A   Mostly Cloudy
1:53 PM 46.4 °F 41.5 °F 23.0 °F 40% 30.31 in 10.0 mi South 10.4 mph - N/A   Mostly Cloudy
2:13 PM 46.4 °F 41.1 °F 23.0 °F 40% 30.30 in 10.0 mi SSW 11.5 mph 17.3 mph N/A   Scattered Clouds
2:33 PM 46.4 °F 41.9 °F 21.2 °F 37% 30.30 in 10.0 mi South 9.2 mph - N/A   Clear
2:53 PM 46.4 °F 41.1 °F 23.0 °F 40% 30.29 in 10.0 mi South 11.5 mph - N/A   Clear
3:13 PM 48.2 °F - 21.2 °F 34% 30.29 in 10.0 mi SSE 12.7 mph 16.1 mph N/A   Clear
3:33 PM 48.2 °F - 21.2 °F 34% 30.29 in 10.0 mi South 9.2 mph - N/A   Clear
3:53 PM 46.4 °F 41.9 °F 21.2 °F 37% 30.28 in 10.0 mi SSE 9.2 mph - N/A   Clear
4:13 PM 46.4 °F 41.1 °F 21.2 °F 37% 30.28 in 10.0 mi South 11.5 mph - N/A   Clear
4:33 PM 46.4 °F 42.4 °F 21.2 °F 37% 30.28 in 10.0 mi South 8.1 mph - N/A   Clear
4:53 PM 46.4 °F 42.4 °F 21.2 °F 37% 30.28 in 10.0 mi SSE 8.1 mph - N/A   Clear
5:13 PM 46.4 °F 42.9 °F 23.0 °F 40% 30.27 in 10.0 mi SE 6.9 mph - N/A   Scattered Clouds
5:33 PM 44.6 °F 40.2 °F 21.2 °F 39% 30.27 in 10.0 mi SE 8.1 mph - N/A   Scattered Clouds
5:53 PM 44.6 °F 43.1 °F 23.0 °F 43% 30.28 in 10.0 mi SE 3.5 mph - N/A   Scattered Clouds
6:13 PM 41.0 °F 37.1 °F 23.0 °F 49% 30.28 in 10.0 mi SE 5.8 mph - N/A   Scattered Clouds
6:33 PM 39.2 °F 35.0 °F 23.0 °F 52% 30.28 in 10.0 mi SE 5.8 mph - N/A   Scattered Clouds
6:53 PM 39.2 °F 35.0 °F 23.0 °F 52% 30.28 in 10.0 mi SE 5.8 mph - N/A   Scattered Clouds
7:13 PM 39.2 °F 35.0 °F 26.6 °F 61% 30.28 in 10.0 mi ESE 5.8 mph - N/A   Clear
7:33 PM 35.6 °F 30.7 °F 23.0 °F 60% 30.29 in 10.0 mi ESE 5.8 mph - N/A   Clear
7:53 PM 35.6 °F 29.2 °F 23.0 °F 60% 30.29 in 10.0 mi SE 8.1 mph - N/A   Clear
8:13 PM 39.2 °F 33.6 °F 26.6 °F 61% 30.29 in 10.0 mi SE 8.1 mph - N/A   Clear
8:33 PM 37.4 °F 32.8 °F 26.6 °F 65% 30.30 in 10.0 mi ESE 5.8 mph - N/A   Clear
8:53 PM 35.6 °F 29.9 °F 24.8 °F 65% 30.29 in 10.0 mi ESE 6.9 mph - N/A   Clear
9:13 PM 35.6 °F 29.9 °F 24.8 °F 65% 30.30 in 10.0 mi ESE 6.9 mph - N/A   Clear
9:33 PM 33.8 °F 27.7 °F 23.0 °F 65% 30.30 in 10.0 mi ESE 6.9 mph - N/A   Clear
9:53 PM 33.8 °F 28.6 °F 24.8 °F 70% 30.30 in 10.0 mi ESE 5.8 mph - N/A   Scattered Clouds
10:13 PM 33.8 °F 27.7 °F 24.8 °F 70% 30.31 in 10.0 mi SE 6.9 mph - N/A   Scattered Clouds
10:33 PM 33.8 °F 27.7 °F 23.0 °F 65% 30.30 in 10.0 mi SE 6.9 mph - N/A   Clear
10:53 PM 33.8 °F 27.0 °F 26.6 °F 75% 30.30 in 10.0 mi ESE 8.1 mph - N/A   Clear
11:13 PM 33.8 °F 27.7 °F 23.0 °F 65% 30.30 in 10.0 mi SE 6.9 mph - N/A   Clear
11:32 PM 33.8 °F 27.7 °F 24.8 °F 70% 30.31 in 10.0 mi SE 6.9 mph - N/A   Clear
11:53 PM 32.0 °F 24.8 °F 23.0 °F 69% 30.30 in 10.0 mi ESE 8.1 mph - N/A   Clear